GW4854 Weather Reports


Display with metric or nautical units.
time (UTC)temp
F
wind
direction
speed
MPH
gust
MPH
rain 1hr
in
rain 24hr
in
rain mn
in
humidity
%
barometer
mb
20260510164227 67 103 1.0 3.0 0.00 0.00 0.00 75 1016.7
20260510163726 67 168 5.0 6.0 0.00 0.00 0.00 73 1016.4
20260510163222 68 139 2.0 4.0 0.00 0.00 0.00 72 1016.4
20260510162722 68 173 3.0 7.0 0.00 0.00 0.00 73 1016.2
20260510162220 68 156 1.0 3.0 0.00 0.00 0.00 75 1016.2
20260510161715 68 162 2.0 4.0 0.00 0.00 0.00 75 1016.4
20260510161211 68 102 3.0 6.0 0.00 0.00 0.00 74 1016.4
20260510160709 68 86 2.0 3.0 0.00 0.00 0.00 77 1016.1
20260510160204 68 116 1.0 2.0 0.00 0.00 0.00 75 1016.0
20260510155700 67 53 1.0 2.0 0.00 0.00 0.00 76 1016.0
20260510155156 66 88 1.0 2.0 0.00 0.00 0.00 77 1016.1
20260510154652 65 130 1.0 1.0 0.00 0.00 0.00 80 1016.2
20260510154148 66 186 1.0 2.0 0.00 0.00 0.00 80 1016.3
20260510153643 66 125 1.0 2.0 0.00 0.00 0.00 75 1016.2
20260510153140 67 120 2.0 3.0 0.00 0.00 0.00 73 1016.3
20260510152636 67 147 4.0 4.0 0.00 0.00 0.00 72 1016.0
20260510152132 69 114 4.0 6.0 0.00 0.00 0.00 70 1016.0
20260510151629 69 155 2.0 3.0 0.00 0.00 0.00 72 1015.7
20260510151128 70 92 1.0 1.0 0.00 0.00 0.00 65 1015.5
20260510150628 70 12 4.0 4.0 0.00 0.00 0.00 64 1015.3
20260510150124 70 142 2.0 2.0 0.00 0.00 0.00 69 1015.5
20260510145620 70 117 4.0 6.0 0.00 0.00 0.00 68 1015.6
20260510145117 71 103 2.0 4.0 0.00 0.00 0.00 65 1015.9
20260510144613 70 31 4.0 7.0 0.00 0.00 0.00 67 1015.6
20260510144109 71 42 6.0 8.0 0.00 0.00 0.00 65 1015.7
20260510143605 71 125 3.0 6.0 0.00 0.00 0.00 65 1015.7
20260510143101 70 68 4.0 6.0 0.00 0.00 0.00 70 1015.8
20260510142558 69 31 4.0 6.0 0.00 0.00 0.00 69 1015.8
20260510142055 69 53 4.0 4.0 0.00 0.00 0.00 68 1015.7
20260510141551 68 46 6.0 8.0 0.00 0.00 0.00 71 1015.7
20260510141049 69 48 2.0 8.0 0.00 0.00 0.00 70 1015.7
20260510140545 69 43 3.0 3.0 0.00 0.00 0.00 69 1015.8
20260510140045 68 13 5.0 7.0 0.00 0.00 0.00 70 1015.9
20260510135541 67 74 2.0 6.0 0.00 0.00 0.00 72 1015.8
20260510135037 67 52 2.0 6.0 0.00 0.00 0.00 72 1015.6
20260510134534 67 83 6.0 8.0 0.00 0.00 0.00 72 1015.6
20260510134031 66 51 1.0 1.0 0.00 0.00 0.00 74 1015.6
20260510133527 66 65 5.0 7.0 0.00 0.00 0.00 75 1015.5
20260510133023 66 63 7.0 8.0 0.00 0.00 0.00 73 1015.3
20260510132520 67 64 4.0 6.0 0.00 0.00 0.00 71 1015.5
20260510132017 67 112 2.0 4.0 0.00 0.00 0.00 72 1015.4
20260510131515 67 70 2.0 2.0 0.00 0.00 0.00 72 1015.3
20260510131012 65 318 1.0 1.0 0.00 0.00 0.00 76 1015.3
20260510130508 66 337 2.0 4.0 0.00 0.00 0.00 76 1015.5
20260510130006 64 282 1.0 2.0 0.00 0.00 0.00 82 1015.6
20260510125501 63 166 0.0 1.0 0.00 0.00 0.00 88 1015.5
20260510124958 63 201 0.0 1.0 0.00 0.00 0.00 90 1015.4
20260510124454 62 242 1.0 2.0 0.00 0.00 0.00 90 1015.4
20260510123951 61 248 2.0 2.0 0.00 0.00 0.00 92 1015.4
20260510123447 60 279 1.0 3.0 0.00 0.00 0.00 96 1015.4
20260510122943 59 276 1.0 1.0 0.00 0.00 0.00 99 1015.5
20260510122438 57 277 0.0 1.0 0.00 0.00 0.00 99 1015.6
20260510121935 56 245 0.0 1.0 0.00 0.00 0.00 99 1015.5
20260510121432 56 270 1.0 1.0 0.00 0.00 0.00 99 1015.5
20260510120930 55 249 0.0 1.0 0.00 0.00 0.00 99 1015.5
20260510120427 55 261 1.0 1.0 0.00 0.00 0.00 99 1015.4
20260510115923 53 255 1.0 1.0 0.00 0.00 0.00 99 1015.3
20260510115420 53 249 1.0 2.0 0.00 0.00 0.00 99 1015.2
20260510114915 51 251 0.0 1.0 0.00 0.00 0.00 99 1015.3
20260510114413 51 244 1.0 1.0 0.00 0.00 0.00 99 1015.0
20260510113908 51 274 1.0 2.0 0.00 0.00 0.00 99 1015.1
20260510113404 51 254 1.0 1.0 0.00 0.00 0.00 99 1014.9
20260510112902 51 260 0.0 1.0 0.00 0.00 0.00 99 1014.9
20260510112358 50 30 0.0 1.0 0.00 0.00 0.00 99 1014.9
20260510111854 49 250 0.0 1.0 0.00 0.00 0.00 99 1014.5
20260510111351 47 269 0.0 1.0 0.00 0.00 0.00 99 1014.5
20260510110846 47 269 0.0 0.0 0.00 0.00 0.00 99 1014.3
20260510110343 47 269 0.0 0.0 0.00 0.00 0.00 99 1014.3
20260510105839 47 277 0.0 0.0 0.00 0.00 0.00 99 1014.1
20260510105339 46 18 0.0 1.0 0.00 0.00 0.00 99 1014.2
20260510104835 46 285 0.0 0.0 0.00 0.00 0.00 99 1014.0
20260510104332 46 285 0.0 0.0 0.00 0.00 0.00 99 1014.0
20260510103829 46 285 0.0 0.0 0.00 0.00 0.00 99 1013.8
20260510103326 46 285 0.0 0.0 0.00 0.00 0.00 99 1014.0
20260510102821 46 285 0.0 0.0 0.00 0.00 0.00 99 1013.8
20260510102317 46 285 0.0 1.0 0.00 0.00 0.00 99 1013.6
20260510101815 46 331 1.0 1.0 0.00 0.00 0.00 99 1013.9
20260510101313 46 255 1.0 1.0 0.00 0.00 0.00 99 1013.9
20260510100808 46 269 0.0 1.0 0.00 0.00 0.00 99 1013.8
20260510100307 46 254 0.0 1.0 0.00 0.00 0.00 99 1013.5
20260510095802 46 46 0.0 0.0 0.00 0.00 0.00 99 1013.5
20260510095257 46 46 0.0 0.0 0.00 0.00 0.00 99 1013.3
20260510094756 46 328 1.0 1.0 0.00 0.00 0.00 99 1013.2
20260510094252 46 328 0.0 0.0 0.00 0.00 0.00 99 1013.3
20260510093748 46 328 0.0 0.0 0.00 0.00 0.00 99 1013.4
20260510093245 46 328 0.0 0.0 0.00 0.00 0.00 99 1013.3
20260510092741 46 328 1.0 1.0 0.00 0.00 0.00 99 1013.1
20260510092237 46 328 0.0 0.0 0.00 0.00 0.00 99 1013.1
20260510091733 46 328 0.0 0.0 0.00 0.00 0.00 99 1013.2
20260510091230 46 328 0.0 0.0 0.00 0.00 0.00 99 1013.2
20260510090726 46 328 0.0 0.0 0.00 0.00 0.00 99 1013.1
20260510090224 46 328 0.0 0.0 0.00 0.00 0.00 99 1013.1
20260510085719 46 328 0.0 0.0 0.00 0.00 0.00 99 1013.1
20260510085214 47 328 0.0 0.0 0.00 0.00 0.00 99 1013.0
20260510084710 46 328 0.0 0.0 0.00 0.00 0.00 99 1013.0
20260510084207 47 328 0.0 0.0 0.00 0.00 0.00 99 1012.8
20260510083704 47 328 0.0 0.0 0.00 0.00 0.00 99 1012.8
20260510083201 47 328 0.0 0.0 0.00 0.00 0.00 99 1012.7
20260510082656 47 328 0.0 0.0 0.00 0.00 0.00 99 1012.7
20260510082152 47 328 0.0 0.0 0.00 0.00 0.00 99 1012.8
20260510081647 47 327 1.0 1.0 0.00 0.00 0.00 99 1012.7
20260510081143 47 328 0.0 1.0 0.00 0.00 0.00 99 1012.8
20260510080642 47 328 0.0 1.0 0.00 0.00 0.00 99 1012.6
20260510080140 47 328 0.0 0.0 0.00 0.00 0.00 99 1012.5
20260510075637 48 328 0.0 1.0 0.00 0.00 0.00 99 1012.6
20260510075134 48 327 0.0 1.0 0.00 0.00 0.00 99 1012.4
20260510074631 48 327 1.0 2.0 0.00 0.00 0.00 99 1012.7
20260510074126 48 328 1.0 1.0 0.00 0.00 0.00 99 1012.4
20260510073623 48 328 1.0 2.0 0.00 0.00 0.00 99 1012.5
20260510073120 48 328 0.0 1.0 0.00 0.00 0.00 99 1012.4
20260510072616 48 328 1.0 1.0 0.00 0.00 0.00 99 1012.4
20260510072113 48 328 0.0 0.0 0.00 0.00 0.00 99 1012.4
20260510071608 48 328 0.0 0.0 0.00 0.00 0.00 99 1012.6
20260510071106 48 327 0.0 1.0 0.00 0.00 0.00 99 1012.5
20260510070603 48 328 0.0 1.0 0.00 0.00 0.00 99 1012.4
20260510065557 48 328 0.0 1.0 0.00 0.00 0.00 99 1012.4
20260510065053 48 328 0.0 1.0 0.00 0.00 0.00 99 1012.5
20260510064549 48 328 0.0 0.0 0.00 0.00 0.00 99 1012.5
20260510064046 49 328 1.0 1.0 0.00 0.00 0.00 99 1012.6
20260510063543 48 328 0.0 0.0 0.00 0.00 0.00 99 1012.6
20260510063040 48 328 0.0 1.0 0.00 0.00 0.00 99 1012.7
20260510062536 49 328 0.0 0.0 0.00 0.00 0.00 99 1012.4
20260510062031 48 328 0.0 1.0 0.00 0.00 0.00 99 1012.5
20260510061528 49 328 0.0 1.0 0.00 0.00 0.00 99 1012.3
20260510061025 49 328 0.0 0.0 0.00 0.00 0.00 99 1012.6
20260510060521 49 328 1.0 1.0 0.00 0.00 0.00 99 1012.5
20260510060017 49 328 0.0 0.0 0.00 0.00 0.00 99 1012.6
20260510055513 49 328 0.0 1.0 0.00 0.00 0.00 99 1012.6
20260510055012 49 328 1.0 1.0 0.00 0.00 0.00 99 1012.6
20260510054507 49 328 0.0 0.0 0.00 0.00 0.00 99 1012.7
20260510054002 49 328 0.0 0.0 0.00 0.00 0.00 99 1012.5
20260510053457 49 328 0.0 1.0 0.00 0.00 0.00 99 1012.7
20260510052954 49 328 0.0 1.0 0.00 0.00 0.00 99 1012.5
20260510052450 50 328 0.0 1.0 0.00 0.00 0.00 99 1012.7
20260510051946 49 328 2.0 2.0 0.00 0.00 0.00 99 1012.7
20260510051442 49 329 1.0 1.0 0.00 0.00 0.00 99 1012.7
20260510050938 49 329 2.0 2.0 0.00 0.00 0.00 99 1012.9
20260510050436 49 329 0.0 1.0 0.00 0.00 0.00 99 1012.9
20260510045933 49 329 1.0 1.0 0.00 0.00 0.00 99 1012.7
20260510045430 49 329 1.0 1.0 0.00 0.00 0.00 99 1012.7
20260510044927 50 329 1.0 1.0 0.00 0.00 0.00 99 1012.7
20260510044424 50 329 1.0 1.0 0.00 0.00 0.00 99 1012.8
20260510043920 50 329 1.0 1.0 0.00 0.00 0.00 99 1012.8
20260510043416 50 329 1.0 1.0 0.00 0.00 0.00 99 1013.0
20260510042915 50 329 1.0 1.0 0.00 0.00 0.00 99 1013.1
20260510042410 50 329 1.0 1.0 0.00 0.00 0.00 99 1013.0
20260510041906 50 329 1.0 2.0 0.00 0.00 0.00 99 1012.9
20260510041403 50 330 1.0 1.0 0.00 0.00 0.00 99 1012.9
20260510040901 50 330 0.0 0.0 0.00 0.00 0.00 99 1012.8
20260510040358 50 330 1.0 1.0 0.00 0.00 0.00 99 1012.9
20260510035854 50 330 0.0 0.0 0.00 0.00 0.00 99 1013.0
20260510035349 51 330 0.0 0.0 0.00 0.00 0.00 99 1012.9
20260510034844 51 330 1.0 1.0 0.00 0.00 0.00 99 1012.9
20260510034343 51 330 1.0 1.0 0.00 0.00 0.00 99 1012.9
20260510033839 51 330 0.0 1.0 0.00 0.00 0.00 99 1013.0
20260510033336 51 330 0.0 1.0 0.00 0.00 0.00 99 1012.9
20260510032832 51 330 1.0 1.0 0.00 0.00 0.00 99 1013.0
20260510032330 51 330 0.0 0.0 0.00 0.00 0.00 99 1012.8
20260510031825 52 330 0.0 1.0 0.00 0.00 0.00 99 1012.6
20260510031320 52 330 0.0 0.0 0.00 0.00 0.00 98 1012.7
20260510030815 52 330 0.0 0.0 0.00 0.00 0.00 98 1012.7
20260510030312 52 330 0.0 0.0 0.00 0.00 0.00 98 1012.7
20260510025809 52 330 0.0 0.0 0.00 0.00 0.00 98 1012.5
20260510025306 52 330 0.0 0.0 0.00 0.00 0.00 97 1012.4
20260510024803 52 330 0.0 0.0 0.00 0.00 0.00 97 1012.3
20260510024300 53 330 0.0 0.0 0.00 0.00 0.00 97 1012.3
20260510023756 53 330 0.0 0.0 0.00 0.00 0.00 97 1012.1
20260510023253 53 330 0.0 0.0 0.00 0.00 0.00 97 1012.1
20260510022750 53 330 0.0 1.0 0.00 0.00 0.00 96 1012.2
20260510022249 53 330 0.0 1.0 0.00 0.00 0.00 96 1012.1
20260510021749 54 330 0.0 1.0 0.00 0.00 0.00 96 1012.2
20260510021247 54 330 1.0 1.0 0.00 0.00 0.00 96 1012.2
20260510020743 54 330 0.0 1.0 0.00 0.00 0.00 95 1012.0
20260510020242 54 330 0.0 1.0 0.00 0.00 0.00 95 1011.9
20260510015739 54 330 1.0 1.0 0.00 0.00 0.00 94 1012.0
20260510015235 55 330 0.0 0.0 0.00 0.00 0.00 93 1011.8
20260510014730 55 331 0.0 0.0 0.00 0.00 0.00 93 1011.6
20260510014228 55 331 0.0 0.0 0.00 0.00 0.00 92 1011.5
20260510013723 56 331 0.0 0.0 0.00 0.00 0.00 92 1011.5
20260510013219 56 331 0.0 0.0 0.00 0.00 0.00 91 1011.5
20260510012719 56 331 0.0 0.0 0.00 0.00 0.00 91 1011.2
20260510012214 56 331 0.0 0.0 0.00 0.00 0.00 90 1011.1
20260510011709 57 331 0.0 0.0 0.00 0.00 0.00 89 1011.1
20260510011205 57 331 0.0 0.0 0.00 0.00 0.00 88 1011.0
20260510010702 58 331 0.0 0.0 0.00 0.00 0.00 86 1010.9
20260510010158 58 331 0.0 0.0 0.00 0.00 0.00 85 1010.9
20260510005655 59 332 0.0 0.0 0.00 0.00 0.00 84 1011.0
20260510005151 60 332 0.0 0.0 0.00 0.00 0.00 82 1010.9
20260510004650 60 332 0.0 0.0 0.00 0.00 0.00 80 1010.8
20260510004148 61 332 0.0 0.0 0.00 0.00 0.00 79 1011.0
20260510003645 62 332 0.0 0.0 0.00 0.00 0.00 77 1010.9
20260510003140 63 332 0.0 0.0 0.00 0.00 0.00 75 1010.7
20260510002635 64 332 0.0 0.0 0.00 0.00 0.00 73 1010.7
20260510002132 65 50 0.0 1.0 0.00 0.00 0.00 68 1010.2
20260510001629 66 44 1.0 2.0 0.00 0.00 0.00 66 1010.4
20260510001128 67 35 3.0 4.0 0.00 0.00 0.00 65 1010.4
20260510000627 66 39 4.0 6.0 0.00 0.00 0.00 65 1010.5
20260510000125 67 38 2.0 4.0 0.00 0.00 0.00 65 1010.6
20260509235621 67 72 2.0 3.0 0.00 0.00 0.00 64 1010.2
20260509235118 68 59 3.0 8.0 0.00 0.00 0.00 63 1010.2
20260509234614 68 66 3.0 7.0 0.00 0.00 0.00 62 1010.0
20260509234112 69 44 4.0 7.0 0.00 0.00 0.00 62 1010.2
20260509233610 69 34 6.0 8.0 0.00 0.00 0.00 61 1010.4
20260509233107 69 47 2.0 4.0 0.00 0.00 0.00 60 1010.2
20260509232603 69 49 3.0 3.0 0.00 0.00 0.00 61 1010.1
20260509232100 69 79 3.0 4.0 0.00 0.00 0.00 62 1010.0
20260509231556 69 42 6.0 7.0 0.00 0.00 0.00 59 1010.2
20260509231054 69 37 4.0 4.0 0.00 0.00 0.00 60 1010.1
20260509230551 69 56 7.0 10.0 0.00 0.00 0.00 61 1010.2
20260509230048 69 72 3.0 4.0 0.00 0.00 0.00 62 1010.2
20260509225549 69 68 4.0 7.0 0.00 0.00 0.00 62 1010.1
20260509225044 69 26 2.0 2.0 0.00 0.00 0.00 61 1010.0
20260509224540 69 60 4.0 8.0 0.00 0.00 0.00 61 1010.1
20260509224037 71 40 7.0 9.0 0.00 0.00 0.00 57 1010.1
20260509223534 70 35 4.0 6.0 0.00 0.00 0.00 60 1010.0
20260509223032 71 49 4.0 6.0 0.00 0.00 0.00 58 1010.1
20260509222528 70 69 6.0 7.0 0.00 0.00 0.00 59 1010.0
20260509222023 71 41 2.0 4.0 0.00 0.00 0.00 56 1010.1
20260509221519 70 3 4.0 8.0 0.00 0.00 0.00 59 1010.0
20260509221015 71 49 6.0 10.0 0.00 0.00 0.00 59 1010.2
20260509220512 71 52 6.0 8.0 0.00 0.00 0.00 57 1010.1
20260509220008 70 70 3.0 6.0 0.00 0.00 0.00 60 1010.5
20260509215503 71 46 6.0 8.0 0.00 0.00 0.00 58 1010.4
20260509215001 71 42 5.0 7.0 0.00 0.00 0.00 59 1010.2
20260509214458 71 82 4.0 8.0 0.00 0.00 0.00 58 1010.2
20260509213954 72 99 3.0 11.0 0.00 0.00 0.00 57 1010.5
20260509213451 72 46 5.0 8.0 0.00 0.00 0.00 59 1010.4
20260509212948 71 45 2.0 8.0 0.00 0.00 0.00 60 1010.5
20260509212445 70 51 2.0 7.0 0.00 0.00 0.00 59 1010.4
20260509211942 70 63 6.0 7.0 0.00 0.00 0.00 61 1010.6
20260509211437 70 37 5.0 6.0 0.00 0.00 0.00 61 1010.4
20260509210934 70 37 3.0 4.0 0.00 0.00 0.00 61 1010.5
20260509210431 71 40 8.0 10.0 0.00 0.00 0.00 58 1010.5
20260509205926 70 75 2.0 3.0 0.00 0.00 0.00 60 1010.5
20260509205421 69 45 2.0 3.0 0.00 0.00 0.00 62 1010.6
20260509204917 69 45 2.0 3.0 0.00 0.00 0.00 62 1010.5
20260509204413 68 51 5.0 9.0 0.00 0.00 0.00 63 1010.4
20260509203910 70 83 3.0 7.0 0.00 0.00 0.00 62 1010.6
20260509203406 69 93 4.0 4.0 0.00 0.00 0.00 64 1010.5
20260509202904 69 85 4.0 4.0 0.00 0.00 0.00 64 1010.4
20260509202359 71 63 4.0 6.0 0.00 0.00 0.00 62 1010.5
20260509201854 70 88 2.0 7.0 0.00 0.00 0.00 63 1010.5
20260509201350 70 50 2.0 3.0 0.00 0.00 0.00 63 1010.4
20260509200848 71 20 4.0 6.0 0.00 0.00 0.00 59 1010.6
20260509200342 68 54 3.0 3.0 0.00 0.00 0.00 66 1010.6
20260509195840 68 88 3.0 3.0 0.00 0.00 0.00 65 1010.6
20260509195339 68 47 4.0 8.0 0.00 0.00 0.00 66 1011.0
20260509194839 69 36 2.0 3.0 0.00 0.00 0.00 63 1011.0
20260509194335 70 72 7.0 8.0 0.00 0.00 0.00 65 1010.8
20260509193832 71 73 5.0 6.0 0.00 0.00 0.00 62 1010.7
20260509193326 69 65 3.0 6.0 0.00 0.00 0.00 66 1010.9
20260509192823 68 56 5.0 10.0 0.00 0.00 0.00 65 1010.7
20260509192319 69 27 5.0 6.0 0.00 0.00 0.00 65 1010.9
20260509191814 69 28 4.0 8.0 0.00 0.00 0.00 65 1010.9
20260509191310 69 62 6.0 10.0 0.00 0.00 0.00 67 1010.9
20260509190806 69 68 5.0 13.0 0.00 0.00 0.00 67 1011.0
20260509190304 68 13 6.0 14.0 0.00 0.00 0.00 66 1010.9
20260509185801 69 75 9.0 9.0 0.00 0.00 0.00 66 1011.0
20260509185257 69 19 7.0 9.0 0.00 0.00 0.00 64 1010.7
20260509184754 68 35 5.0 10.0 0.00 0.00 0.00 65 1010.8
20260509184252 68 50 7.0 10.0 0.00 0.00 0.00 64 1010.9
20260509183748 68 34 13.0 15.0 0.00 0.00 0.00 64 1010.7
20260509183244 68 56 4.0 9.0 0.00 0.00 0.00 66 1010.7
20260509182739 68 61 5.0 10.0 0.00 0.00 0.00 66 1010.7
20260509182237 69 42 11.0 14.0 0.00 0.00 0.00 66 1010.8
20260509181734 68 8 0.0 6.0 0.00 0.00 0.00 65 1010.6
20260509181231 67 58 9.0 13.0 0.00 0.00 0.00 67 1010.8
20260509180728 68 25 6.0 8.0 0.00 0.00 0.00 64 1010.7
20260509180225 68 50 5.0 7.0 0.00 0.00 0.00 69 1010.7
20260509175721 67 44 6.0 8.0 0.00 0.00 0.00 68 1011.0
20260509175218 66 51 6.0 10.0 0.00 0.00 0.00 70 1010.8
20260509174714 66 44 5.0 10.0 0.00 0.00 0.00 69 1010.9
20260509174209 67 57 5.0 8.0 0.00 0.00 0.00 70 1011.0
20260509173705 65 87 5.0 7.0 0.00 0.00 0.00 68 1011.2
20260509173201 65 116 2.0 6.0 0.00 0.00 0.00 72 1011.2
20260509172657 63 27 2.0 6.0 0.00 0.00 0.00 71 1011.2
20260509172154 63 66 1.0 3.0 0.00 0.00 0.00 70 1011.3
20260509171649 64 86 2.0 3.0 0.00 0.00 0.00 70 1011.4
20260509171146 64 42 1.0 2.0 0.00 0.00 0.00 69 1011.5
20260509170643 64 137 0.0 3.0 0.00 0.00 0.00 70 1011.6
20260509170138 63 99 3.0 4.0 0.00 0.00 0.00 70 1011.5
20260509165637 62 81 2.0 2.0 0.00 0.00 0.00 70 1011.6
20260509165133 62 85 1.0 2.0 0.00 0.00 0.00 73 1011.5
20260509164629 62 86 1.0 3.0 0.00 0.00 0.00 74 1011.7